Simultaneous Nadir Overpasses (SNOs) Predictions

Prediction of SNOs between GOES-17 and TERRA Satellite Orbit:

Table of predicted SNOs for the next 14.0 days since TLE Epoch: 7/23/2022
Index Date Time (GOES-17) GOES-17 Lat,Lon TERRA Lat,Lon Distance(km) Time Diff (sec)
1 07/23/2022 07:24:16 0.01,-137.29 0.21,-136.38 103.79 80
2 07/23/2022 19:42:50 -0.01,-137.30 0.89,-141.54 482.04 80
3 07/25/2022 07:11:59 0.00,-137.29 0.85,-133.42 440.95 80
4 07/25/2022 19:30:33 -0.01,-137.30 0.24,-138.58 145.07 80
5 07/27/2022 19:20:55 -0.00,-137.29 -0.36,-135.60 191.29 80
6 07/28/2022 07:39:38 0.01,-137.28 -0.73,-140.80 399.86 80
7 07/30/2022 07:27:20 0.02,-137.27 -0.13,-137.83 64.29 80
8 08/01/2022 07:17:43 0.02,-137.25 0.55,-134.87 271.10 80
9 08/01/2022 19:36:17 -0.03,-137.25 0.54,-140.03 315.30 80
10 08/03/2022 19:26:39 -0.03,-137.23 -0.09,-137.06 19.85 80
11 08/05/2022 19:14:20 -0.02,-137.20 -0.66,-134.08 353.79 80
